This is the latest recevied weather packets stored in our database for station/object NEWPRT. If no packets are shown the sender has not sent any weather packets the latest 10 day(s).
| Time | Temp. | Humidity | Pressure | Rain* | Wind** | Luminosity | Snow |
|---|---|---|---|---|---|---|---|
| 1778155389 | - | 66% | 1021.2 hPa | 0 mm | - | - | - |
| 1778155065 | - | 65% | 1021.2 hPa | 0 mm | - | - | - |
| 1778154742 | - | 66% | 1021.1 hPa | 0 mm | - | - | - |
| 1778154419 | - | 66% | 1021.3 hPa | 0 mm | - | - | - |
| 1778154096 | - | 65% | 1021.3 hPa | 0 mm | - | - | - |
| 1778153776 | - | 68% | 1021.3 hPa | 0 mm | - | - | - |
| 1778153450 | - | 68% | 1021.2 hPa | 0 mm | - | - | - |
| 1778153127 | - | 66% | 1021.4 hPa | 0 mm | - | - | - |
| 1778152803 | - | 67% | 1021.2 hPa | 0 mm | - | - | - |
| 1778152480 | - | 66% | 1021.3 hPa | 0 mm | - | - | - |
| 1778152157 | - | 64% | 1021.4 hPa | 0 mm | - | - | - |
| 1778151834 | - | 62% | 1021.3 hPa | 0 mm | - | - | - |
| 1778151511 | - | 64% | 1021.4 hPa | 0 mm | - | - | - |
| 1778151188 | - | 64% | 1021.4 hPa | 0 mm | - | - | - |
| 1778150867 | - | 66% | 1021.5 hPa | 0 mm | - | - | - |
| 1778150543 | - | 64% | 1021.6 hPa | 0 mm | - | - | - |
| 1778150270 | - | 66% | 1021.6 hPa | 0 mm | - | - | - |
| 1778150219 | - | 66% | 1021.6 hPa | 0 mm | - | - | - |
| 1778149896 | - | 65% | 1021.6 hPa | 0 mm | - | - | - |
| 1778149573 | - | 68% | 1021.8 hPa | 0 mm | - | - | - |
| 1778149250 | - | 68% | 1021.8 hPa | 0 mm | - | - | - |
| 1778148927 | - | 69% | 1021.8 hPa | 0 mm | - | - | - |
| 1778148604 | - | 69% | 1021.8 hPa | 0 mm | - | - | - |
| 1778148281 | - | 70% | 1021.7 hPa | 0 mm | - | - | - |
| 1778147958 | - | 71% | 1021.9 hPa | 0 mm | - | - | - |
* Rain latest hour (hover to see other rain measurements)
** Current wind speed in m/s (hover to see current wind gust speed)